TimeMST,TemperatureF,Dew PointF,Humidity,Sea Level PressureIn,VisibilityMPH,Wind Direction,Wind SpeedMPH,Gust SpeedMPH,PrecipitationIn,Events,Conditions,WindDirDegrees,DateUTC
12:25 AM,10.4,-9999,N/A,30.03,10.0,South,5.8,-,N/A,,Clear,180,2013-01-07 07:25:00
12:45 AM,8.6,-9999,N/A,30.03,10.0,SSW,3.5,-,N/A,,Clear,210,2013-01-07 07:45:00
1:05 AM,5.0,-9999,N/A,30.04,10.0,Calm,Calm,-,N/A,,Clear,0,2013-01-07 08:05:00
1:25 AM,1.4,-9999,N/A,30.03,10.0,South,3.5,-,N/A,,Clear,170,2013-01-07 08:25:00
1:45 AM,1.4,-9999,N/A,30.03,10.0,Calm,Calm,-,N/A,,Clear,0,2013-01-07 08:45:00
2:05 AM,-0.4,-9999,N/A,30.03,10.0,SE,4.6,-,N/A,,Clear,140,2013-01-07 09:05:00
2:25 AM,5.0,-9999,N/A,30.05,10.0,NW,4.6,-,N/A,,Clear,310,2013-01-07 09:25:00
2:45 AM,1.4,-9999,N/A,30.04,10.0,Calm,Calm,-,N/A,,Clear,0,2013-01-07 09:45:00
3:05 AM,-0.4,-9999,N/A,30.04,10.0,Calm,Calm,-,N/A,,Clear,0,2013-01-07 10:05:00
3:25 AM,-0.4,-9999,N/A,30.03,10.0,Calm,Calm,-,N/A,,Clear,0,2013-01-07 10:25:00
3:45 AM,-0.4,-9999,N/A,30.03,10.0,Calm,Calm,-,N/A,,Clear,0,2013-01-07 10:45:00
4:05 AM,-0.4,-9999,N/A,30.02,10.0,Calm,Calm,-,N/A,,Clear,0,2013-01-07 11:05:00
4:25 AM,-0.4,-9999,N/A,30.02,10.0,Calm,Calm,-,N/A,,Scattered Clouds,0,2013-01-07 11:25:00
4:45 AM,-0.4,-9999,N/A,30.03,10.0,WSW,4.6,-,N/A,,Scattered Clouds,240,2013-01-07 11:45:00
5:25 AM,-0.4,-9999,N/A,30.03,10.0,Calm,Calm,-,N/A,,Clear,0,2013-01-07 12:25:00
5:45 AM,-0.4,-9999,N/A,30.02,10.0,South,3.5,-,N/A,,Clear,170,2013-01-07 12:45:00
6:05 AM,1.4,-9999,N/A,30.02,10.0,ESE,3.5,-,N/A,,Clear,110,2013-01-07 13:05:00
6:25 AM,-0.4,-9999,N/A,30.02,10.0,Calm,Calm,-,N/A,,Clear,0,2013-01-07 13:25:00
6:45 AM,-0.4,-9999,N/A,30.02,10.0,Calm,Calm,-,N/A,,Clear,0,2013-01-07 13:45:00
7:05 AM,-0.4,-9999,N/A,30.01,10.0,Calm,Calm,-,N/A,,Clear,0,2013-01-07 14:05:00
7:25 AM,-0.4,-9999,N/A,30.03,10.0,Calm,Calm,-,N/A,,Partly Cloudy,0,2013-01-07 14:25:00
7:45 AM,-0.4,-9999,N/A,30.04,10.0,Calm,Calm,-,N/A,,Mostly Cloudy,0,2013-01-07 14:45:00
8:05 AM,-0.4,-9999,N/A,30.04,10.0,SSW,3.5,-,N/A,,Scattered Clouds,210,2013-01-07 15:05:00
8:25 AM,1.4,-9999,N/A,30.04,10.0,Calm,Calm,-,N/A,,Partly Cloudy,0,2013-01-07 15:25:00
8:45 AM,3.2,-9999,N/A,30.04,10.0,Calm,Calm,-,N/A,,Partly Cloudy,0,2013-01-07 15:45:00
9:05 AM,5.0,-9999,N/A,30.03,10.0,Calm,Calm,-,N/A,,Partly Cloudy,0,2013-01-07 16:05:00
9:25 AM,5.0,-9999,N/A,30.03,10.0,Calm,Calm,-,N/A,,Mostly Cloudy,0,2013-01-07 16:25:00
9:45 AM,6.8,-9999,N/A,30.03,10.0,Calm,Calm,-,N/A,,Mostly Cloudy,0,2013-01-07 16:45:00
10:05 AM,8.6,-9999,N/A,30.03,10.0,Calm,Calm,-,N/A,,Mostly Cloudy,0,2013-01-07 17:05:00
10:25 AM,8.6,-9999,N/A,30.04,10.0,Calm,Calm,-,N/A,,Overcast,0,2013-01-07 17:25:00
10:45 AM,10.4,-9999,N/A,30.04,10.0,Calm,Calm,-,N/A,,Mostly Cloudy,0,2013-01-07 17:45:00
11:05 AM,14.0,-9999,N/A,30.04,9.0,Calm,Calm,-,N/A,Snow,Light Snow,0,2013-01-07 18:05:00
11:25 AM,14.0,-9999,N/A,30.03,1.5,SSW,5.8,-,N/A,Snow,Light Snow,210,2013-01-07 18:25:00
12:05 PM,15.8,-9999,N/A,30.01,0.8,SSW,9.2,-,N/A,Snow,Light Snow,210,2013-01-07 19:05:00
12:25 PM,15.8,-9999,N/A,29.99,0.8,SW,10.4,16.1,N/A,Snow,Light Snow,220,2013-01-07 19:25:00
12:45 PM,15.8,-9999,N/A,29.98,0.8,SW,9.2,-,N/A,Snow,Light Snow,220,2013-01-07 19:45:00
1:05 PM,15.8,-9999,N/A,29.97,0.8,SSW,6.9,-,N/A,Snow,Light Snow,210,2013-01-07 20:05:00
1:25 PM,15.8,-9999,N/A,29.96,0.8,SSW,11.5,16.1,N/A,Snow,Light Snow,210,2013-01-07 20:25:00
1:45 PM,15.8,-9999,N/A,29.96,0.8,SSW,10.4,-,N/A,Snow,Light Snow,210,2013-01-07 20:45:00
2:05 PM,15.8,-9999,N/A,29.96,0.8,SSW,16.1,25.3,N/A,Snow,Light Snow,200,2013-01-07 21:05:00
2:25 PM,15.8,-9999,N/A,29.96,2.0,SSW,16.1,20.7,N/A,Snow,Light Snow,210,2013-01-07 21:25:00
2:45 PM,15.8,-9999,N/A,29.96,2.0,SSW,13.8,18.4,N/A,Snow,Light Snow,200,2013-01-07 21:45:00
3:05 PM,15.8,-9999,N/A,29.96,1.0,SSW,9.2,18.4,N/A,Snow,Light Snow,210,2013-01-07 22:05:00
3:25 PM,15.8,-9999,N/A,29.95,0.8,SSW,10.4,-,N/A,Snow,Light Snow,210,2013-01-07 22:25:00
4:05 PM,15.8,-9999,N/A,29.95,1.2,SW,9.2,-,N/A,Snow,Light Snow,230,2013-01-07 23:05:00
4:25 PM,15.8,-9999,N/A,29.95,1.0,SW,11.5,18.4,N/A,Snow,Light Snow,220,2013-01-07 23:25:00
4:45 PM,15.8,-9999,N/A,29.95,8.0,SW,16.1,26.5,N/A,Snow,Light Snow,230,2013-01-07 23:45:00
5:05 PM,15.8,-9999,N/A,29.94,1.5,West,11.5,17.3,N/A,Snow,Light Snow,260,2013-01-08 00:05:00
5:25 PM,15.8,-9999,N/A,29.95,1.8,WSW,9.2,19.6,N/A,Snow,Light Snow,250,2013-01-08 00:25:00
5:45 PM,15.8,-9999,N/A,29.95,2.0,WSW,10.4,21.9,N/A,Snow,Light Snow,250,2013-01-08 00:45:00
6:05 PM,15.8,-9999,N/A,29.96,1.5,WSW,9.2,16.1,N/A,Snow,Light Snow,250,2013-01-08 01:05:00
6:25 PM,15.8,-9999,N/A,29.95,2.5,WSW,11.5,17.3,N/A,Snow,Light Snow,250,2013-01-08 01:25:00
6:45 PM,15.8,-9999,N/A,29.95,2.0,SW,12.7,20.7,N/A,Snow,Light Snow,230,2013-01-08 01:45:00
7:05 PM,15.8,-9999,N/A,29.96,1.2,SW,17.3,24.2,N/A,Snow,Light Snow,220,2013-01-08 02:05:00
7:25 PM,15.8,-9999,N/A,29.95,1.2,SW,15.0,20.7,N/A,Snow,Light Snow,220,2013-01-08 02:25:00
7:45 PM,15.8,-9999,N/A,29.94,1.5,SW,17.3,29.9,N/A,Snow,Light Snow,230,2013-01-08 02:45:00
8:05 PM,15.8,-9999,N/A,29.94,1.5,WSW,8.1,18.4,N/A,Snow,Light Snow,250,2013-01-08 03:05:00
8:25 PM,15.8,-9999,N/A,29.94,2.5,SW,11.5,21.9,N/A,Snow,Light Snow,230,2013-01-08 03:25:00
8:45 PM,15.8,-9999,N/A,29.93,3.0,SSW,15.0,29.9,N/A,Snow,Light Snow,210,2013-01-08 03:45:00
9:05 PM,15.8,-9999,N/A,29.93,2.5,SW,19.6,32.2,N/A,Snow,Light Snow,220,2013-01-08 04:05:00
9:25 PM,15.8,-9999,N/A,29.93,3.0,SSW,16.1,27.6,N/A,,Mostly Cloudy,210,2013-01-08 04:25:00
9:45 PM,15.8,-9999,N/A,29.95,5.0,WSW,11.5,25.3,N/A,,Haze,240,2013-01-08 04:45:00
10:05 PM,15.8,-9999,N/A,29.95,5.0,SW,12.7,18.4,N/A,Snow,Light Snow,220,2013-01-08 05:05:00
10:25 PM,15.8,-9999,N/A,29.95,5.0,SW,9.2,-,N/A,,Haze,230,2013-01-08 05:25:00
10:45 PM,15.8,-9999,N/A,29.95,5.0,SW,10.4,19.6,N/A,Snow,Light Snow,220,2013-01-08 05:45:00
11:05 PM,15.8,-9999,N/A,29.95,5.0,WSW,8.1,20.7,N/A,,Haze,250,2013-01-08 06:05:00
11:45 PM,15.8,-9999,N/A,29.95,4.0,WSW,17.3,28.8,N/A,,Haze,240,2013-01-08 06:45:00